Home > Weather > Bangor > Past weeks

Flag for United Kingdom Past Weather in Bangor, Wales, United Kingdom — Yesterday and Last 2 Weeks

Now
57 °F

Cool.


Feels Like: 52 °F
Forecast: 53 / 60 °F
Wind: 30 mph from West

Location: Capel Curig

Current Time: Jun 29, 2016 at 5:32:30 PM

Latest Report: Jun 29, 2016 at 4:00 PM


Visibility: 28 mi

Pressure: 29.56 "Hg

Humidity: 84%

Dew Point: 53 °F

Location of BangorLocation

Past Weather in Bangor — Graph

°F

Bangor Temperature Yesterday

Maximum temperature yesterday: 55 °F (at 11:00 AM)
Minimum temperature yesterday: 48 °F (at 10:00 PM)
Average temperature yesterday: 52 °F

High & Low Weather Summary for the Past Weeks

 TemperatureHumidityPressure
High64 °F (Jun 15, 4:00 PM)100% (Jun 20, 5:00 AM)30.24 "Hg (Jun 20, 5:00 AM)
Low48 °F (Jun 28, 10:00 PM)61% (Jun 20, 6:00 PM)29.35 "Hg (Jun 14, 4:00 PM)
Average56 °F85%29.91 "Hg
* Reported Jun 14 4:00 PM — Jun 29 4:00 PM, Bangor, Weather by CustomWeather, © 2016

Note: Actual official high and low records may vary slightly from our data, if they occured in-between our weather recording intervals... More about our weather records

Advertising

Bangor Weather History for the Previous 24 Hours

Scroll right to see more
 ConditionsComfort  
Time TempWeatherWind HumidityBarometerVisibility
4:00 PM
Wed, Jun 29
57 °FCool.30 mph84%29.56 "Hg28 mi
3:00 PM56 °FLight rain. Cloudy.24 mph95%29.54 "Hg2 mi
2:00 PM56 °FRain. Cloudy.32 mph94%29.50 "Hg3 mi
1:00 PM56 °FCool.35 mph90%29.50 "Hg14 mi
12:00 PM56 °FCool.33 mph91%29.50 "Hg15 mi
11:00 AM56 °FRain. Cloudy.31 mph95%29.50 "Hg4 mi
10:00 AM56 °FRain. Cloudy.30 mph89%29.53 "Hg2 mi
9:00 AM52 °FRain. Cloudy.10 mph90%29.60 "Hg3 mi
8:00 AM53 °FLight rain. Cloudy.16 mph86%29.65 "Hg6 mi
7:00 AM52 °FLight rain. Cloudy.15 mph96%29.69 "Hg5 mi
6:00 AM52 °FCool.13 mph91%29.72 "Hg16 mi
5:00 AM51 °FCool.18 mph84%29.73 "Hg25 mi
4:00 AM51 °FCool.15 mph82%29.75 "Hg19 mi
2:00 AM51 °FCool.13 mph93%29.78 "Hg19 mi
1:00 AM49 °FCool.14 mph94%29.79 "Hg19 mi
12:00 AM49 °FCool.16 mph95%29.80 "Hg31 mi
11:00 PM
Tue, Jun 28
48 °FCool.10 mph96%29.80 "Hg25 mi
10:00 PM48 °FCool.3 mph91%29.79 "Hg19 mi
9:00 PM50 °FCool.9 mph90%29.78 "Hg25 mi
8:00 PM52 °FCool.1 mph88%29.77 "Hg25 mi
7:00 PM51 °FLight rain. Cloudy.1 mph91%29.77 "Hg15 mi
5:00 PM52 °FLots of rain. Cloudy.5 mph88%29.79 "Hg13 mi
Weather by CustomWeather, © 2016

See weather overviewHow to use our weather pages